{"data":{"norad_id":59355,"intl_designator":"2024-060H","name":"STARLINK-31416","alt_names":[],"object_type":"PAYLOAD","status":"ACTIVE","operator":null,"country":"US","launch_date":"2024-03-31","launch_site_code":"AFETR","launch_vehicle":null,"mission":null,"orbit_class":"UNKNOWN","rcs_meters":null,"size_class":null,"mass_kg":null,"dimensions":null,"purposes":["comms"],"wikipedia_slug":null,"has_3d_model":false,"image_url":null,"decayed_at":null,"tle_current":{"epoch":"2026-05-25T03:15:31.836096Z","epoch_age_seconds":66537,"freshness":"FRESH","line1":"1 59355U 24060H   26145.13578514  .00000045  00000+0  11160-4 0  9992","line2":"2 59355  42.9999 188.1820 0001491 269.9610  90.1071 15.27580762121754","mean_motion":15.27580762,"eccentricity":0.0001491,"inclination_deg":42.9999,"raan_deg":188.182,"arg_perigee_deg":269.961,"mean_anomaly_deg":90.1071,"bstar":1.116e-5,"rev_number":12175,"period_min":94.266701690761,"perigee_km":482.02381183176,"apogee_km":484.06981684519,"semimajor_km":6861.1838143385,"source":"CELESTRAK","updated_at":"2026-05-25T13:38:18.909641Z"}}}